This is the latest recevied weather packets stored in our database for station/object SQ9SMC-13. If no packets are shown the sender has not sent any weather packets the latest 10 day(s).
| Time | Temp. | Humidity | Pressure | Rain* | Wind** | Luminosity | Snow |
|---|---|---|---|---|---|---|---|
| 1777885503 | 23.33° C | 36% | 1017.2 hPa | 0 mm | - | 574 W/m² | - |
| 1777885202 | 22.22° C | 38% | 1017.2 hPa | 0 mm | - | 564 W/m² | - |
| 1777884905 | 22.22° C | 36% | 1017.1 hPa | 0 mm | - | 503 W/m² | - |
| 1777884602 | 22.78° C | 36% | 1017.3 hPa | 0 mm | - | 542 W/m² | - |
| 1777884303 | 22.22° C | 36% | 1017.2 hPa | 0 mm | - | 568 W/m² | - |
| 1777884004 | 22.78° C | 35% | 1017.3 hPa | 0 mm | - | 572 W/m² | - |
| 1777883703 | 22.22° C | 36% | 1017.3 hPa | 0 mm | - | 550 W/m² | - |
| 1777883403 | 22.22° C | 36% | 1017.2 hPa | 0 mm | - | 524 W/m² | - |
| 1777883103 | 21.67° C | 37% | 1017.4 hPa | 0 mm | - | 497 W/m² | - |
| 1777882802 | 21.11° C | 38% | 1017.1 hPa | 0 mm | - | 277 W/m² | - |
| 1777882502 | 21.11° C | 37% | 1017.3 hPa | 0 mm | - | 305 W/m² | - |
| 1777882204 | 21.11° C | 37% | 1017.2 hPa | 0 mm | - | 407 W/m² | - |
| 1777881903 | 21.11° C | 38% | 1017.2 hPa | 0 mm | - | 394 W/m² | - |
| 1777881604 | 21.11° C | 37% | 1017.2 hPa | 0 mm | - | 395 W/m² | - |
| 1777881303 | 21.11° C | 37% | 1017.1 hPa | 0 mm | - | 427 W/m² | - |
| 1777881006 | 21.11° C | 37% | 1017.1 hPa | 0 mm | - | 481 W/m² | - |
| 1777880703 | 21.11° C | 37% | 1017 hPa | 0 mm | - | 465 W/m² | - |
| 1777880405 | 21.11° C | 38% | 1017.2 hPa | 0 mm | - | 454 W/m² | - |
| 1777880104 | 20.56° C | 38% | 1017.1 hPa | 0 mm | - | 450 W/m² | - |
| 1777879803 | 20.56° C | 37% | 1017.3 hPa | 0 mm | - | 436 W/m² | - |
| 1777879503 | 20° C | 38% | 1017.1 hPa | 0 mm | - | 394 W/m² | - |
| 1777879203 | 20.56° C | 38% | 1017.3 hPa | 0 mm | - | 385 W/m² | - |
| 1777878904 | 20° C | 39% | 1017.1 hPa | 0 mm | - | 390 W/m² | - |
| 1777878604 | 20° C | 39% | 1017.3 hPa | 0 mm | - | 384 W/m² | - |
| 1777878302 | 20° C | 38% | 1017.1 hPa | 0 mm | - | 376 W/m² | - |
* Rain latest hour (hover to see other rain measurements)
** Current wind speed in m/s (hover to see current wind gust speed)